TimeCST,TemperatureF,Dew PointF,Humidity,Sea Level PressureIn,VisibilityMPH,Wind Direction,Wind SpeedMPH,Gust SpeedMPH,PrecipitationIn,Events,Conditions,WindDirDegrees,DateUTC
12:52 AM,44.1,19.0,37,29.88,10.0,South,21.9,33.4,N/A,,Clear,190,2014-01-04 06:52:00
1:52 AM,44.1,23.0,43,29.85,10.0,South,26.5,39.1,N/A,,Clear,190,2014-01-04 07:52:00
2:52 AM,45.0,28.0,52,29.83,10.0,SSW,29.9,39.1,N/A,,Clear,200,2014-01-04 08:52:00
3:52 AM,44.1,30.0,58,29.83,10.0,SSW,27.6,39.1,N/A,,Clear,200,2014-01-04 09:52:00
4:52 AM,44.1,32.0,63,29.82,10.0,SSW,27.6,40.3,N/A,,Clear,200,2014-01-04 10:52:00
5:52 AM,44.1,34.0,68,29.82,10.0,SSW,21.9,31.1,N/A,,Clear,210,2014-01-04 11:52:00
6:52 AM,44.1,36.0,73,29.83,10.0,SSW,20.7,33.4,N/A,,Clear,200,2014-01-04 12:52:00
7:52 AM,44.1,37.0,76,29.83,10.0,SSW,21.9,29.9,N/A,,Clear,210,2014-01-04 13:52:00
8:52 AM,46.0,37.9,73,29.83,10.0,SSW,23.0,31.1,N/A,,Clear,210,2014-01-04 14:52:00
9:52 AM,50.0,37.9,63,29.83,10.0,SSW,19.6,31.1,N/A,,Clear,210,2014-01-04 15:52:00
10:52 AM,55.0,37.9,53,29.82,10.0,SSW,25.3,32.2,N/A,,Clear,210,2014-01-04 16:52:00
11:52 AM,59.0,37.9,46,29.80,10.0,SSW,19.6,28.8,N/A,,Clear,200,2014-01-04 17:52:00
12:52 PM,64.0,37.9,38,29.75,10.0,SSW,17.3,-,N/A,,Clear,200,2014-01-04 18:52:00
1:52 PM,70.0,36.0,29,29.70,10.0,SSW,11.5,25.3,N/A,,Clear,200,2014-01-04 19:52:00
2:52 PM,71.1,34.0,26,29.68,10.0,SSW,15.0,-,N/A,,Clear,210,2014-01-04 20:52:00
3:52 PM,71.1,37.0,29,29.68,10.0,SSW,16.1,-,N/A,,Clear,200,2014-01-04 21:52:00
4:52 PM,71.1,37.9,30,29.68,10.0,SSW,13.8,-,N/A,,Clear,210,2014-01-04 22:52:00
5:52 PM,64.0,37.9,38,29.69,10.0,SW,8.1,-,N/A,,Clear,220,2014-01-04 23:52:00
6:52 PM,61.0,37.9,42,29.71,10.0,SSW,9.2,-,N/A,,Clear,200,2014-01-05 00:52:00
7:52 PM,61.0,37.0,41,29.73,10.0,WSW,9.2,-,N/A,,Clear,240,2014-01-05 01:52:00
8:32 PM,51.8,30.2,44,29.77,10.0,North,13.8,-,N/A,,Clear,350,2014-01-05 02:32:00
8:52 PM,50.0,30.0,46,29.78,10.0,NNW,17.3,25.3,N/A,,Clear,330,2014-01-05 02:52:00
9:52 PM,46.9,28.0,48,29.79,10.0,NE,10.4,-,N/A,,Clear,40,2014-01-05 03:52:00
10:52 PM,43.0,27.0,53,29.84,10.0,North,13.8,-,N/A,,Clear,360,2014-01-05 04:52:00
11:52 PM,37.0,27.0,67,29.88,10.0,North,16.1,26.5,N/A,,Clear,360,2014-01-05 05:52:00